Regional Weather Roundup
Issued by NWS

Home | Current Version | Previous Version | Graphics & Text | Print | Product List | Glossary On
Versions: 1 2 3 4 5 6 7 8 9 10 11 12 13 14 15 16 17 18 19 20 21 22 23 24 25 26 27 28 29 30 31 32 33 34 35 36 37 38 39 40 41 42 43 44 45 46 47 48 49 50
000
ASUS43 KMKX 162311
RWRWI

WISCONSIN REGIONAL WEATHER ROUNDUP
NATIONAL WEATHER SERVICE MILWAUKEE/SULLIVAN WI
600 PM CDT MON OCT 16 2017

NOTE: "FAIR" INDICATES FEW OR NO CLOUDS BELOW 12,000 FEET WITH NO
SIGNIFICANT WEATHER AND/OR OBSTRUCTIONS TO VISIBILITY.

WIZ001-002-006>008-014>016-023>028-170000-
NORTHWEST WISCONSIN

CITY           SKY/WX    TMP DP  RH WIND       PRES   REMARKS
SUPERIOR ARPT  PTCLDY    59  35  41 SW13      29.94F
ASHLAND        PTCLDY    57  34  41 S10       29.97F
HAYWARD        CLEAR     55  34  45 S13       30.01F
SIREN          CLEAR     58  35  41 S5        30.00F
CUMBERLAND     CLEAR     54  34  47 S6        30.02F
RICE LAKE      CLEAR     58  34  41 S5        30.05F
CHETEK         CLEAR     57  37  46 S3        30.04F
LADYSMITH      CLEAR     55  35  48 S9        30.07S
EAU CLAIRE     CLEAR     59  36  42 S7        30.05F
MENOMONIE      CLEAR     58  37  44 SE6       30.05F
NEW RICHMOND   CLEAR     59  35  41 S6        30.02F
OSCEOLA        CLEAR     60  37  43 SE6       30.03F
$$

WIZ003>005-009-010-017-018-170000-
NORTH CENTRAL WISCONSIN

CITY           SKY/WX    TMP DP  RH WIND       PRES   REMARKS
MANITOWISH WTR CLEAR     52  32  47 S6        30.02F
ARBOR VITAE    CLEAR     52  34  50 SW7       30.04F
WOODRUFF       CLEAR     52  34  50 SW7       30.04F
RHINELANDER    CLEAR     52  34  50 SW6       30.07F
EAGLE RIVER    CLEAR     52  32  46 SW6       30.04F
LAND O LAKES   CLEAR     52  34  49 SW3       30.05F
PHILLIPS       CLEAR     53  33  45 S5        30.04F
TOMAHAWK       CLEAR     51  33  49 SW3       30.07F
MEDFORD        CLEAR     53  34  49 SW5       30.08F
MERRILL        CLEAR     54  35  48 SW8       30.09F
$$

WIZ029-030-035-036-043>047-170000-
CENTRAL WISCONSIN

CITY           SKY/WX    TMP DP  RH WIND       PRES   REMARKS
WAUSAU         CLEAR     54  36  50 SW8       30.08F
MOSINEE        PTCLDY    52  37  58 SW7       30.11F
MARSHFIELD     CLEAR     53  34  48 SW8       30.09F
STEVENS POINT  CLEAR     53  34  48 SW7       30.12F
WAUPACA        CLEAR     57  37  47 SW5       30.13F
WAUTOMA        CLEAR     56  37  49 SW6       30.14F
WISC RAPIDS    CLEAR     54  38  54 SW6       30.13F
CAMP DOUGLAS   PTCLDY    57  37  47 S3        30.13S
$$

WIZ011>013-019>022-031-037>040-048>050-170000-
NORTHEAST WISCONSIN

CITY           SKY/WX    TMP DP  RH WIND       PRES   REMARKS
ANTIGO         CLEAR     51  36  57 SW9       30.09F
SHAWANO        PTCLDY    57  37  46 S5        30.11F
OCONTO         PTCLDY    55  37  50 SW5       30.11F
STURGEON BAY   CLEAR     53  38  56 S7        30.13F
GREEN BAY      CLEAR     55  41  59 S6        30.13F
MANITOWOC      CLEAR     56  36  47 SW3       30.17R
APPLETON       PTCLDY    55  34  44 SW7       30.13F
CLINTONVILLE   CLEAR     54  36  50 SW6       30.11F
OSHKOSH        CLEAR     56  36  47 SW6       30.14F
$$

WIZ032>034-041-042-053>061-170000-
SOUTHWEST WISCONSIN

CITY           SKY/WX    TMP DP  RH WIND       PRES   REMARKS
LA CROSSE      CLEAR     61  37  41 S7        30.10F
SPARTA         CLEAR     56  35  45 S3        30.12F
VIROQUA        CLEAR     58  36  43 CALM      30.14F
BOSCOBEL       CLEAR     62  32  32 S3        30.15F
PRAIRIE DU CHI CLEAR     62  32  31 CALM      30.14F
PLATTEVILLE    CLEAR     59  37  44 SW6       30.18F
$$

WIZ056-057-062-063-064-067-068-170000-
SOUTH CENTRAL WISCONSIN

CITY           SKY/WX    TMP DP  RH WIND       PRES   REMARKS
REEDSBURG      CLEAR     56  38  51 S6        30.14F
BARABOO/DELLS  CLEAR     55  36  48 SW6       30.15F
LONE ROCK      CLEAR     59  36  42 SW5       30.16S
MINERAL POINT  CLEAR     59  32  36 SW5       30.18S
MADISON        PTCLDY    58  36  43 SW5       30.17F
MIDDLETON      CLEAR     58  36  42 SW6       30.17S
WATERTOWN      CLEAR     55  37  50 SW5       30.17F
MONROE         CLEAR     57  36  44 SW9       30.19S
JANESVILLE     CLEAR     55  34  44 W7        30.19S
$$

WIZ051-052-058>065-066-070>072-170000-
SOUTHEAST WISCONSIN

CITY           SKY/WX    TMP DP  RH WIND       PRES   REMARKS
MILWAUKEE      PTCLDY    60  35  39 SW6       30.19F
WAUKESHA       CLEAR     55  34  44 SW5       30.20S
MILWAUKEE/TIMM CLEAR     57  32  38 SW9       30.19F
RACINE         CLEAR     58  35  42 SW5       30.21F
BURLINGTON     CLEAR     55  38  52 SW3       30.19F
KENOSHA        CLEAR     54  37  52 SW5       30.20F
FOND DU LAC    CLEAR     56  34  43 SW6       30.16F
SHEBOYGAN      CLEAR     53  38  56 SW7       30.17S
WEST BEND      CLEAR     54  32  43 SW3       30.18S
JUNEAU         CLEAR     55  37  50 CALM      30.19S
$$

LSZ147-162-170000-
LAKE SUPERIOR

STATION/POSITION TIME  TEMP    WIND        PRES    WAVE
                       AIR SEA DIR/SP/G            HT/PER
                 (UTC) (F)     (DEG/KT/KT) (MB)    (FT/S)
W MID LAKE BUOY  2250   54 53              1014.1F   3/ 5
DEVILS ISLAND    2300   57     190/ 10/ 13 1014.1F
SAXON HARBOR     2230   59     200/  5/ 15 1014.9F
$$

LMZ867-665-643>646-170000-
LAKE MICHIGAN

STATION/POSITION TIME  TEMP    WIND        PRES    WAVE
                       AIR SEA DIR/SP/G            HT/PER
                 (UTC) (F)     (DEG/KT/KT) (MB)    (FT/S)
S GREEN BAY BUOY 2300   58 58  220/ 14/ 16 1019.7
N MID LAKE BUOY  2250   56 60  210/ 17/ 21 1020.3F   3/ 5
NORTHPORT PIER   2240   55     180/  3/  9 1019.3F
KEWAUNEE LAKESHO 2242   57     210/  6/  8 1020.2F
SHEBOYGAN LAKESH 2300   55     190/ 13/ 14 1021.7R
PORT WASHINGTON  2240   59     260/  4/  8 1022.7S
MILWAUKEE LAKESH 2250   59     230/  7/  9   N/A
S MID LAKE BUOY  2250   58 62  220/ 10/ 12 1023.2F   1/ 3
KENOSHA   LAKESH 2300   60     240/  5/  9 1022.4
$$

TC  - TEMPERATURE IN CELSIUS
VSB - VISIBILITY IN STATUTE MILES
WCI - WIND CHILL INDEX
HX  - HEAT INDEX





USA.gov is the U.S. government's official web portal to all federal, state and local government web resources and services.